(139) Juewa
ephemeris date magn radius delta ra dec elong phase
Today19 Jul 202513.12.421 AU2.481 AU12h30m-09°40'74.7°23.9°
Opposition19 Jul 202612.43.018 AU2.025 AU20h11m-35°09'165.2°4.9°
(139) Juewa - 2025-07-19
astro.vanbuitenen.nl


 
-1 year
-1 month
-1 day
Now
+1 day
+1 month
+1 year

The interactive orbit chart above shows the body's path through the solar system and its position at the given date. Green and blue lines are shown perpendicular to the ecliptic plane: Green if the path is above the ecliptic plane, blue if it is below. (Left-click and drag to rotate the view; Right-click and drag to move the view; Use scroll wheel to zoom in our out.)

The orbital elements of Juewa are:

            e (Eccentricity)                : 0.1701350
            a (Semimajor axis)              : 2.7851378
            i (Inclination)                 : 10.87201
            Ω (Longitude of ascending node) : 1.67162
            ω (Argument of perihelion)      : 167.27871
            M (Mean anomaly)                : 17.56544
            Epoch                           : 2025 May 05

            L (Longitude of perihelion)     : -10.82857
            B (Latitude of perihelion)      : 2.38045
            P (Orbital period in years)     : 4.65            
        

The light curve chart below shows the estimated development of the minor planet's magnitude.


The all-sky chart below shows the path of the minor planet over the same period as the light curve. The current position is marked yellow.





The following chart shows the path of the minor planet in the next few days. The field of view is optimized for (~10x50) binoculars and finderscopes. A more printer-friendly version of the same chart can be found below.




Ephemerides:
Date       Time       RA (2000)    DEC (2000)    delta   radius  elong  phase   PA    magn
2025-07-19 00:00 UT   12 30 36.8   -09 40 46     2.481    2.421   74.7   23.9   115   13.1 
2025-07-19 01:57 UT   12 30 43.2   -09 41 31     2.483    2.421   74.6   23.9   115   13.1 
2025-07-20 00:00 UT   12 31 55.8   -09 50 10     2.494    2.422   74.1   23.8   115   13.1 
2025-07-21 00:00 UT   12 33 15.3   -09 59 36     2.507    2.423   73.5   23.7   115   13.1 
2025-07-22 00:00 UT   12 34 35.4   -10 09 04     2.520    2.424   72.9   23.6   115   13.1 
2025-07-23 00:00 UT   12 35 56.0   -10 18 34     2.532    2.426   72.3   23.5   115   13.1 
2025-07-24 00:00 UT   12 37 17.2   -10 28 06     2.545    2.427   71.8   23.4   115   13.1 
2025-07-25 00:00 UT   12 38 39.0   -10 37 39     2.557    2.428   71.2   23.3   115   13.1 
2025-07-26 00:00 UT   12 40 01.2   -10 47 15     2.570    2.430   70.6   23.2   115   13.1 
2025-07-27 00:00 UT   12 41 24.0   -10 56 52     2.583    2.431   70.0   23.1   115   13.1 
2025-07-28 00:00 UT   12 42 47.3   -11 06 30     2.595    2.432   69.5   23.0   115   13.1 
2025-07-29 00:00 UT   12 44 11.1   -11 16 11     2.607    2.434   68.9   22.9   115   13.2 
2025-07-30 00:00 UT   12 45 35.4   -11 25 52     2.620    2.435   68.3   22.8   115   13.2 
2025-07-31 00:00 UT   12 47 00.2   -11 35 35     2.632    2.436   67.8   22.7   116   13.2 
2025-08-01 00:00 UT   12 48 25.5   -11 45 20     2.645    2.438   67.2   22.6   116   13.2 
2025-08-02 00:00 UT   12 49 51.3   -11 55 05     2.657    2.439   66.6   22.5   116   13.2 
2025-08-03 00:00 UT   12 51 17.5   -12 04 52     2.669    2.441   66.1   22.3   116   13.2 
2025-08-04 00:00 UT   12 52 44.2   -12 14 40     2.681    2.442   65.5   22.2   116   13.2 
2025-08-05 00:00 UT   12 54 11.4   -12 24 28     2.694    2.443   64.9   22.1   116   13.2 
2025-08-06 00:00 UT   12 55 39.0   -12 34 18     2.706    2.445   64.4   22.0   116   13.2 
2025-08-07 00:00 UT   12 57 07.1   -12 44 09     2.718    2.446   63.8   21.8   116   13.2 
2025-08-08 00:00 UT   12 58 35.6   -12 53 60     2.730    2.447   63.3   21.7   116   13.2 
2025-08-09 00:00 UT   13 00 04.5   -13 03 52     2.742    2.449   62.7   21.6   116   13.2 
2025-08-10 00:00 UT   13 01 33.9   -13 13 45     2.754    2.450   62.2   21.5   116   13.2 


    Terminology:
            
    delta:  distance between minor planet and earth in AU
    radius: distance between minor planet and sun in AU
    magn:   magnitude (brightness) estimate    
    ra:     right ascension in hours (24h = 360deg)
    dec:    declination in degrees
    elong:  elongation in degrees (angle sun-earth-minor planet)    
    phase:  phase angle in degrees (angle sun-minor planet-earth)        
    AU:     Astronomical Unit (mean distance between earth and sun: 149597870.7 km
    

Orbital elements provided by the MPC (Minor Planet Center).
Calculations by a modified version of AAPlus, a C# implementation of the AA+ project by PJ Naughter from the algorithms presented in the book "Astronomical Algorithms" by Jean Meeus.
NGC2000 dso catalog and star labels from VizieR as provided by the Strasbourg astronomical Data Center.
Tycho2 catalog from the ESO archive.